TimeCDT,TemperatureF,Dew PointF,Humidity,Sea Level PressureIn,VisibilityMPH,Wind Direction,Wind SpeedMPH,Gust SpeedMPH,PrecipitationIn,Events,Conditions,WindDirDegrees,DateUTC
12:53 AM,57.0,55.9,96,29.94,10.0,Calm,Calm,-,N/A,,Clear,0,2012-11-02 05:53:00
1:53 AM,55.9,55.0,97,29.94,9.0,Calm,Calm,-,N/A,,Clear,0,2012-11-02 06:53:00
2:53 AM,54.0,54.0,100,29.94,8.0,Calm,Calm,-,N/A,,Clear,0,2012-11-02 07:53:00
3:53 AM,54.0,53.1,97,29.93,6.0,Calm,Calm,-,N/A,,Clear,0,2012-11-02 08:53:00
4:53 AM,55.0,54.0,96,29.94,8.0,Calm,Calm,-,N/A,,Clear,0,2012-11-02 09:53:00
5:53 AM,54.0,54.0,100,29.95,8.0,Calm,Calm,-,N/A,,Clear,0,2012-11-02 10:53:00
6:53 AM,55.0,53.1,93,29.96,9.0,Calm,Calm,-,N/A,,Clear,0,2012-11-02 11:53:00
7:53 AM,55.0,54.0,96,29.98,6.0,Calm,Calm,-,N/A,,Clear,0,2012-11-02 12:53:00
8:53 AM,60.1,57.0,90,30.00,6.0,Calm,Calm,-,N/A,,Clear,0,2012-11-02 13:53:00
9:53 AM,66.9,59.0,76,30.01,10.0,SW,6.9,-,N/A,,Clear,230,2012-11-02 14:53:00
10:53 AM,72.0,60.1,66,30.01,10.0,WSW,8.1,-,N/A,,Clear,250,2012-11-02 15:53:00
11:53 AM,77.0,61.0,58,30.01,10.0,WSW,11.5,-,N/A,,Clear,250,2012-11-02 16:53:00
12:53 PM,80.1,62.1,54,29.99,10.0,WSW,13.8,-,N/A,,Clear,240,2012-11-02 17:53:00
1:53 PM,81.0,63.0,54,29.96,10.0,South,11.5,-,N/A,,Clear,180,2012-11-02 18:53:00
2:53 PM,82.9,61.0,47,29.94,10.0,SW,9.2,-,N/A,,Clear,220,2012-11-02 19:53:00
3:53 PM,84.0,57.0,40,29.94,10.0,SW,12.7,-,N/A,,Clear,220,2012-11-02 20:53:00
4:53 PM,82.9,57.0,41,29.93,10.0,SSW,11.5,-,N/A,,Clear,210,2012-11-02 21:53:00
5:53 PM,80.1,59.0,48,29.93,10.0,SW,4.6,-,N/A,,Clear,220,2012-11-02 22:53:00
6:53 PM,73.9,57.9,57,29.94,10.0,South,4.6,-,N/A,,Clear,180,2012-11-02 23:53:00
7:53 PM,73.0,57.9,59,29.96,10.0,South,6.9,-,N/A,,Clear,180,2012-11-03 00:53:00
8:53 PM,70.0,57.9,65,29.96,10.0,South,6.9,-,N/A,,Clear,180,2012-11-03 01:53:00
9:53 PM,69.1,60.1,73,29.97,10.0,South,8.1,-,N/A,,Clear,190,2012-11-03 02:53:00
10:53 PM,66.9,60.1,79,29.98,10.0,South,8.1,-,N/A,,Clear,190,2012-11-03 03:53:00
11:53 PM,66.0,61.0,84,29.97,10.0,SSW,5.8,-,N/A,,Clear,200,2012-11-03 04:53:00